Weather History for KBOW - March, 2011

Change the Weather History Date:

Tuesday, March 1, 2011

  Actual Average Record
Temperature  
Mean Temperature 69 °F -  
Max Temperature 78 °F - - ()
Min Temperature 60 °F - - ()
Cooling Degree Days 4    
Growing Degree Days 19 (Base 50)    
Moisture  
Dew Point 62 °F    
Average Humidity 86    
Maximum Humidity 100    
Minimum Humidity 61    
Precipitation  
Precipitation 0.00 in - - ()
Sea Level Pressure  
Sea Level Pressure 30.07 in    
Wind  
Wind Speed 8 mph (South)    
Max Wind Speed 16 mph    
Max Gust Speed 23 mph    
Visibility 9 miles    
Events Rain    
T = Trace of Precipitation, MM = Missing Value Source: NWS Daily Summary

Daily Weather History Graph

Daily Weather History Graph

Search for Another Location

Airport or City:

Trip Planner

Search our weather history database for the weather conditions in past years. The results will help you decide how hot, cold, wet, or windy it might be!

Date:

Astronomy

Mar. 01, 2011 Rise Set
Actual Time 6:51 AM EST 6:27 PM EST
Civil Twilight 6:28 AM EST 6:50 PM EST
Nautical Twilight 6:01 AM EST 7:18 PM EST
Astronomical Twilight 5:34 AM EST 7:45 PM EST
Moon 4:45 AM EST (3/1) 3:54 PM EST (3/1)
Length of Visible Light 12h 22m
Length of Day
11h 35m
Waning Crescent, 9% of the Moon is Illuminated
Mar 1
Waning Crescent
Mar 4
New
Mar 12
First Quarter
Mar 19
Full
Mar 26
Last Quarter

Hourly Weather History & Observations

Time (EST) Temp. Dew Point Humidity Pressure Visibility Wind Dir Wind Speed Gust Speed Precip Events Conditions
12:15 AM 64.4 °F 64.4 °F 100% 30.07 in 9.0 mi SW 5.8 mph - N/A   Clear
12:35 AM 64.4 °F 64.4 °F 100% 30.07 in 9.0 mi SSW 5.8 mph - N/A   Clear
12:55 AM 64.4 °F 64.4 °F 100% 30.06 in 9.0 mi SSW 5.8 mph - N/A   Clear
1:15 AM 64.4 °F 64.4 °F 100% 30.06 in 8.0 mi SSW 6.9 mph - N/A   Clear
1:35 AM 66.2 °F 66.2 °F 100% 30.04 in 9.0 mi SSW 8.1 mph - N/A   Clear
1:55 AM 66.2 °F 66.2 °F 100% 30.03 in 7.0 mi South 8.1 mph - N/A   Clear
2:15 AM 64.4 °F 64.4 °F 100% 30.04 in 7.0 mi SSW 5.8 mph - N/A   Clear
2:35 AM 64.4 °F 64.4 °F 100% 30.03 in 7.0 mi SSW 6.9 mph - N/A   Clear
2:55 AM 64.4 °F 64.4 °F 100% 30.03 in 8.0 mi SW 6.9 mph - N/A   Clear
3:35 AM 64.4 °F 64.4 °F 100% 30.04 in 7.0 mi SW 4.6 mph - N/A   Clear
3:55 AM 64.4 °F 64.4 °F 100% 30.03 in 8.0 mi SSW 6.9 mph - N/A   Clear
4:15 AM 64.4 °F 64.4 °F 100% 30.02 in 9.0 mi SSW 6.9 mph - N/A   Clear
4:35 AM 64.4 °F 64.4 °F 100% 30.02 in 9.0 mi SSW 6.9 mph - N/A   Clear
4:55 AM 64.4 °F 64.4 °F 100% 30.02 in 9.0 mi SSW 8.1 mph - N/A   Clear
5:15 AM 64.4 °F 64.4 °F 100% 30.03 in 9.0 mi SSW 8.1 mph - N/A   Mostly Cloudy
5:35 AM 64.4 °F 64.4 °F 100% 30.03 in 10.0 mi SSW 8.1 mph - N/A   Overcast
5:55 AM 66.2 °F 66.2 °F 100% 30.03 in 10.0 mi SSW 8.1 mph - N/A   Overcast
6:15 AM 66.2 °F 66.2 °F 100% 30.03 in 10.0 mi SSW 9.2 mph - N/A   Mostly Cloudy
6:35 AM 66.2 °F 66.2 °F 100% 30.04 in 9.0 mi SW 8.1 mph - N/A   Mostly Cloudy
6:55 AM 64.4 °F 64.4 °F 100% 30.04 in 8.0 mi SSW 9.2 mph - N/A   Scattered Clouds
7:15 AM 66.2 °F 66.2 °F 100% 30.04 in 7.0 mi SSW 9.2 mph - N/A   Clear
7:30 AM 66.2 °F 66.2 °F 100% 30.05 in 10.0 mi SSW 9.2 mph - N/A   Scattered Clouds
7:53 AM 66.2 °F 66.2 °F 100% 30.06 in 10.0 mi SW 9.2 mph - N/A   Mostly Cloudy
8:51 AM 69.8 °F 66.2 °F 88% 30.07 in 8.0 mi SW 11.5 mph - N/A Rain Light Rain
9:55 AM 68.0 °F 68.0 °F 100% 30.08 in 5.0 mi SW 8.1 mph - N/A Rain Light Rain
10:55 AM 68.0 °F 68.0 °F 100% 30.08 in 6.0 mi SW 6.9 mph - N/A   Overcast
11:51 AM 69.8 °F 69.8 °F 100% 30.08 in 6.0 mi WSW 5.8 mph - N/A   Overcast
1:26 PM 73.4 °F 69.8 °F 88% 30.04 in 9.0 mi West 4.6 mph - N/A   Mostly Cloudy
1:53 PM 75.2 °F 66.2 °F 73% 30.02 in 10.0 mi West 5.8 mph - N/A   Mostly Cloudy
2:52 PM 77.0 °F 66.2 °F 69% 30.02 in 10.0 mi Variable 5.8 mph - N/A   Mostly Cloudy
3:15 PM 78.8 °F 66.2 °F 65% 30.01 in 9.0 mi North 6.9 mph - N/A   Clear
3:35 PM 78.8 °F 64.4 °F 61% 30.02 in 10.0 mi North 5.8 mph - N/A   Clear
3:55 PM 78.8 °F 64.4 °F 61% 30.02 in 9.0 mi North 9.2 mph - N/A   Clear
4:15 PM 77.0 °F 64.4 °F 65% 30.02 in 9.0 mi NE 13.8 mph 17.3 mph N/A   Clear
4:35 PM 75.2 °F 64.4 °F 69% 30.03 in 8.0 mi NE 15.0 mph - N/A   Clear
4:55 PM 73.4 °F 62.6 °F 69% 30.03 in 8.0 mi NE 11.5 mph 20.7 mph N/A   Clear
5:15 PM 73.4 °F 60.8 °F 65% 30.04 in 8.0 mi NE 11.5 mph - N/A   Clear
5:35 PM 71.6 °F 60.8 °F 69% 30.06 in 9.0 mi ENE 15.0 mph 18.4 mph N/A   Scattered Clouds
5:55 PM 71.6 °F 59.0 °F 64% 30.07 in 10.0 mi NE 15.0 mph - N/A   Mostly Cloudy
6:15 PM 69.8 °F 57.2 °F 64% 30.07 in 10.0 mi NNE 16.1 mph 20.7 mph N/A   Partly Cloudy
6:35 PM 68.0 °F 57.2 °F 68% 30.08 in 10.0 mi NNE 13.8 mph 23.0 mph N/A   Clear
6:55 PM 66.2 °F 57.2 °F 73% 30.09 in 10.0 mi NE 12.7 mph 21.9 mph N/A   Clear
7:15 PM 66.2 °F 55.4 °F 68% 30.10 in 10.0 mi NE 15.0 mph 18.4 mph N/A   Clear
7:35 PM 66.2 °F 55.4 °F 68% 30.10 in 10.0 mi NNE 11.5 mph 18.4 mph N/A   Clear
7:55 PM 64.4 °F 55.4 °F 73% 30.11 in 10.0 mi NE 12.7 mph 16.1 mph N/A   Partly Cloudy
8:15 PM 64.4 °F 55.4 °F 73% 30.12 in 10.0 mi NE 11.5 mph 17.3 mph N/A   Clear
8:35 PM 64.4 °F 55.4 °F 73% 30.13 in 10.0 mi NE 11.5 mph 20.7 mph N/A   Clear
8:55 PM 62.6 °F 55.4 °F 77% 30.13 in 10.0 mi NE 10.4 mph - N/A   Clear
9:15 PM 62.6 °F 55.4 °F 77% 30.14 in 10.0 mi NE 12.7 mph - N/A   Clear
9:35 PM 62.6 °F 55.4 °F 77% 30.14 in 10.0 mi NNE 12.7 mph 19.6 mph N/A   Mostly Cloudy
9:55 PM 62.6 °F 55.4 °F 77% 30.14 in 10.0 mi NNE 11.5 mph - N/A   Overcast
10:15 PM 60.8 °F 55.4 °F 82% 30.14 in 9.0 mi NNE 12.7 mph - N/A   Scattered Clouds
10:35 PM 60.8 °F 57.2 °F 88% 30.14 in 9.0 mi NE 6.9 mph - N/A   Clear
10:55 PM 60.8 °F 57.2 °F 88% 30.15 in 9.0 mi NNE 6.9 mph - N/A   Partly Cloudy
11:15 PM 60.8 °F 57.2 °F 88% 30.14 in 8.0 mi NNE 11.5 mph - N/A   Clear
11:35 PM 60.8 °F 57.2 °F 88% 30.14 in 8.0 mi NNE 10.4 mph - N/A   Clear
11:55 PM 60.8 °F 55.4 °F 82% 30.14 in 8.0 mi NNE 9.2 mph - N/A   Clear